sat.trackr.live / text

‹ back to catalog

STARLINK-31402

NORAD 59320 · 2024-057A

PAYLOAD ACTIVE UNKNOWN

§ Identity

Operator
Country
US
Launch date
2024-03-25
Launch site
AFETR
Launch vehicle
Mass (kg)
RCS (m²)

Purposes: comms

External: N2YO · Heavens-Above · Gunter

§ Orbital elements

Epoch: 2026-05-25T01:58:21.334368Z

Period
94.26 min
Inclination
43.0004°
Eccentricity
0.0001091
Mean motion
15.27762035 rev/d
Perigee alt
481.8 km
Apogee alt
483.3 km
Semi-major
6,860.6 km
B*
4.4506e-4
RAAN
68.0359°
Arg perigee
245.0116°
Mean anomaly
115.0622°
Rev number
12,205

§ Raw data

STARLINK-314021 59320U 24057A   26145.08219137  .00012073  00000+0  44506-3 0  99902 59320  43.0004  68.0359 0001091 245.0116 115.0622 15.27762035122058

JSON: /api/v1/satellites/59320 · /tle

For live sub-satellite position, see the globe view (requires WebGL).

§ Visibility from observer

Set your observer location to see the next 7 days of passes ≥ 10°. The values pass through the URL so the page stays shareable.

No JS? Fill the form by hand. The geolocation button needs JavaScript.